Regional Weather Roundup
Issued by NWS Newport/Morehead, NC

Current Version | Previous Version | Graphics & Text | Print | Product List | Glossary On
Versions: 1 2 3 4 5 6 7 8 9 10 11 12 13 14 15 16 17 18 19 20 21 22 23 24 25 26 27 28 29 30 31 32 33 34 35 36 37 38 39 40 41 42 43 44 45 46 47 48 49 50
000 ASUS42 KMHX 122225 RWRMHX WEATHER ROUNDUP FOR EASTERN NORTH CAROLINA NATIONAL WEATHER SERVICE NEWPORT/MOREHEAD CITY NC 500 PM EST FRI FEB 12 2016 NOTE: "FAIR" INDICATES FEW OR NO CLOUDS BELOW 12,000 FEET WITH NO SIGNIFICANT WEATHER AND/OR OBSTRUCTIONS TO VISIBILITY NCZ015>017-031-032-045>047-102-103-122300- NORTH COAST CITY SKY/WX TMP DP RH WIND PRES REMARKS EDENTON CLOUDY 31 29 94 N6 30.04F ELIZABETH CITY LGT SNOW 29 27 92 NE7 30.03F FOG KITTY HAWK LGT SNOW 32 30 93 CALM 30.01F VSB 3/4 MANTEO LGT SNOW 32 32 100 NE10 30.03S $$ NCZ045>047-081-094-103-104-122300- CENTRAL COAST CITY SKY/WX TMP DP RH WIND PRES REMARKS FRISCO LGT RAIN 35 34 96 N13G21 30.00R SWANQUARTER N/A N/A N/A N/A NE1 29.97S $$ NCZ095-097-098-100-101-122300- SOUTHERN COAST CITY SKY/WX TMP DP RH WIND PRES REMARKS BEAUFORT CLOUDY 34 32 92 N9 30.00S CEDAR ISLAND N/A 36 N/A N/A VRB17 30.06S JACKSONVILLE CLOUDY 34 31 88 N9 30.02F PINEY ISLAND CLOUDY N/A N/A N/A N9 30.01S WILMINGTON CLOUDY 36 31 82 N8 30.03S $$ NCZ011>013-027>030-043-044-078>080-089-090>093-098-122300- COASTAL PLAIN CITY SKY/WX TMP DP RH WIND PRES REMARKS AHOSKIE NOT AVBL CLINTON CLOUDY 32 31 97 CALM 30.05S ELIZABETHTOWN CLOUDY 32 30 92 CALM 30.05R GOLDSBORO CLOUDY 30 30 100 N2 30.02F GREENVILLE CLOUDY 32 30 93 CALM 30.05F HAVELOCK LGT RAIN 34 32 92 N12 30.02F FOG KENANSVILLE CLOUDY 31 30 97 CALM 30.04F KINSTON CLOUDY 30 30 100 N3 30.04F NEW BERN CLOUDY 33 30 88 N8 30.04F RICHLANDS CLOUDY 32 27 80 CALM 30.03S ROCKY MOUNT CLOUDY 29 24 82 NW5 30.05S WASHINGTON RAIN 30 28 92 N3 30.03F WHITEVILLE CLOUDY 36 28 74 CALM 30.03S $$ AMZ130-135-150-152-154-156-158-170-250-252-270-ANZ085-086-088-633-658-670-122300- MARINE OBSERVATIONS STATION/POSITION TIME TEMP WIND PRES WAVE SWELL AIR SEA DIR/SP/G HT/PER HT/PER (UTC) (F) (DEG/KT/KT) (MB) (FT/S) (FT/S) CHESAPEAKE LIGHT 2200 27 80/ 5/ 6 1017.9 64 E VA BEACH 2150 31 48 40/ 10/ 12 1016.9 2/ 6 2/ 6 DUCK 2200 31 30/ 11/ 13 1016.0 2 E DUCK 2111 42 N/A 2/ 5 OREGON INLET 2200 33 41 10/ 12/ 16 1016.0 13E OREGON INLT 2200 45 N/A 4/ 6 HATTERAS CG 2200 35 47 20/ 19/ 23 1014.9 DIAMOND BUOY 2150 46 59 20/ 21/ 25 1013.8 6/ 6 CAPE LOOKOUT NOT AVBL BEAUFORT LAB 2200 34 44 20/ 12/ 16 1014.6 30 SE NEW RVR IN 2208 39 58 1014.6 30 SE NEW RVR IN 2125 58 N/A 6/ 5 27 SE WRIGHTSVLE 2208 36 60 20/ 14/ 19 1014.7 5 SE WRIGHTSVLE 2108 37 51 10/ 12/ 16 1016.7 225 S CAPE HAT 2150 67 68 240/ 35/ 43 N/A 14/ 8 41 SE CHARLESTON 2150 56 67 310/ 14/ 17 1016.2 5/ 6 2/11 $$

USA.gov is the U.S. government's official web portal to all federal, state and local government web resources and services.